X

Important NEWS



New Hub Active

Miami is our new hub! Old members can request transfer via hr@dlxairways.net

Thank you very much and have nice flight.


Deluxe Airways.

X

Tours



Hello again, we created one nice test tour for all pilots to attend. also this is ment to be testing of our tour system

Available Tours

If you find some issues please inform us.

Thank you very much and have nice flight.


Deluxe Airways.

 METAR AND TAF INFORMATION
ArrayMETAR FOR EDFH
15771928 4 EDFH 291150Z 07006KT 010V140 CAVOK 18/04 Q1026 EDFH 2020-05-29T11:50:00Z 49.95 7.27 18.0 4.0 70 6 6.21 30.295275 VFR METAR 498.0 EDFH 291120Z 06007KT 020V140 CAVOK 17/04 Q1027 EDFH 2020-05-29T11:20:00Z 49.95 7.27 17.0 4.0 60 7 6.21 30.324802 VFR METAR 498.0 EDFH 291050Z 04009KT 010V100 CAVOK 17/04 Q1027 EDFH 2020-05-29T10:50:00Z 49.95 7.27 17.0 4.0 40 9 6.21 30.324802 VFR METAR 498.0 EDFH 291020Z VRB09KT CAVOK 17/03 Q1027 EDFH 2020-05-29T10:20:00Z 49.95 7.27 17.0 3.0 0 9 6.21 30.324802 VFR METAR 498.0

 AIRPORT MAP

 RUNWAY INFORMATION
Runway 03 Runway length 12467 ft Runway width 148 ft
Runway elevation 1649 ft Runway displaced threshold 3461 ft Runway heading 32
Runway 21 Runway length 12467 ft Runway width 148 ft
Runway elevation 1595 ft Runway displaced threshold 984 ft Runway heading 212

 AIRPORT FREQUENCIES
Type AFIS Name LANGEN INF Frequency 123.525 MHZ
Type APP Name LANGEN RAD Frequency 125.6 MHZ
Type ATIS Name ATIS Frequency 136.35 MHZ
Type GND Name GND Frequency 121.975 MHZ
Type TWR Name TWR Frequency 119.65 MHZ

 AIRPORT NEAR NAVIGATION AIDS
Type NDB Name Hahn Frequency 376 KHZ
Type DME Name Hahn Frequency 116950 KHZ



Powered by Virtual Airlines Manager [v2.6.2]

Template code change by DeluxeAir